This is the latest recevied weather packets stored in our database for station/object CQ0XPG-11. If no packets are shown the sender has not sent any weather packets the latest 10 day(s).
| Time | Temp. | Humidity | Pressure | Rain* | Wind** | Luminosity | Snow |
|---|---|---|---|---|---|---|---|
| 1778077828 | 19.44° C | 44% | 1001.9 hPa | 0 mm | - | - | - |
| 1778077493 | 19.44° C | 43% | 1001.9 hPa | 0 mm | - | - | - |
| 1778077221 | 19.44° C | 39% | 1001.9 hPa | 0 mm | - | - | - |
| 1778076892 | 19.44° C | 39% | 1002.1 hPa | 0 mm | - | - | - |
| 1778076309 | 19.44° C | 42% | 1002.2 hPa | 0 mm | - | - | - |
| 1778075999 | 18.89° C | 41% | 1002.3 hPa | 0 mm | - | - | - |
| 1778075680 | 18.33° C | 45% | 1002.3 hPa | 0 mm | - | - | - |
| 1778075403 | 18.89° C | 43% | 1002.3 hPa | 0 mm | - | - | - |
| 1778075067 | 19.44° C | 43% | 1002.4 hPa | 0 mm | - | - | - |
| 1778074489 | 19.44° C | 42% | 1002.6 hPa | 0 mm | - | - | - |
| 1778073867 | 18.89° C | 45% | 1002.6 hPa | 0 mm | - | - | - |
| 1778073249 | 18.33° C | 45% | 1002.8 hPa | 0 mm | - | - | - |
| 1778072954 | 17.78° C | 47% | 1002.9 hPa | 0 mm | - | - | - |
| 1778072655 | 18.33° C | 46% | 1002.9 hPa | 0 mm | - | - | - |
| 1778072367 | 18.89° C | 47% | 1003.1 hPa | 0 mm | - | - | - |
| 1778072036 | 18.89° C | 45% | 1002.9 hPa | 0 mm | - | - | - |
| 1778071766 | 18.89° C | 43% | 1003.1 hPa | 0 mm | - | - | - |
| 1778071435 | 19.44° C | 45% | 1003.2 hPa | 0 mm | - | - | - |
| 1778071147 | 19.44° C | 45% | 1003.2 hPa | 0 mm | - | - | - |
| 1778070843 | 18.89° C | 46% | 1003.1 hPa | 0 mm | - | - | - |
| 1778070537 | 18.33° C | 46% | 1003.2 hPa | 0 mm | - | - | - |
| 1778070222 | 18.33° C | 48% | 1003.4 hPa | 0 mm | - | - | - |
| 1778069942 | 18.33° C | 48% | 1003.5 hPa | 0 mm | - | - | - |
| 1778069610 | 17.78° C | 50% | 1003.6 hPa | 0 mm | - | - | - |
| 1778069344 | 17.78° C | 52% | 1003.6 hPa | 0 mm | - | - | - |
* Rain since midnight (hover to see other rain measurements)
** Current wind speed in m/s (hover to see current wind gust speed)